Location: Newark
(30.1000°N, 109.4667°E)
Time: 21:30:04
(UTC+00:00)

Courier 1B Rocket - Pass Details

Date: 25 February 2020
Orbit: 920 x 1202 km, 28.2° (Epoch: 09 April)

Event Time Altitude Azimuth Distance (km) Brightness Sun altitude
Exits shadow 21:41:02 21° 222° (SW) 2,117 6.4 -20.5°
Maximum altitude 21:42:17 22° 206° (SSW) 2,080 6.5 -20.2°
Drops below altitude 10° 21:47:30 10° 159° (SSE) 2,904 7.7 -19.1°
Sets 21:51:00 0° 144° (SE) 3,912 8.7 -18.4°
